Regional Weather Roundup
Issued by NWS

Home | Current Version | Previous Version | Graphics & Text | Print | Product List | Glossary On
Versions: 1 2 3 4 5 6 7 8 9 10 11 12 13 14 15 16 17 18 19 20 21 22 23 24 25 26 27 28 29 30 31 32 33 34 35 36 37 38 39 40 41 42 43 44 45 46 47 48 49 50
000
ASUS43 KIND 170559
RWRIN

WEATHER ROUNDUP FOR INDIANA
NATIONAL WEATHER SERVICE INDIANAPOLIS IN
200 AM EDT WED SEP 17 2014

NOTE: "FAIR" INDICATES FEW OR NO CLOUDS BELOW 12,000 FEET WITH NO
SIGNIFICANT WEATHER AND/OR OBSTRUCTIONS TO VISIBILITY.

* - STATION DOES NOT REPORT WEATHER SUCH AS PRECIPITATION OR FOG.

+ - STATION NOT QUALITY CONTROLLED BY THE NATIONAL WEATHER SERVICE.
    USE DATA WITH CAUTION...ESPECIALLY DEWPOINT AND RELATIVE
    HUMIDITY OBSERVATIONS.

INZ001>003-010>013-019-020-170700-
NORTHWEST INDIANA

CITY           SKY/WX    TMP DP  RH WIND       PRES   REMARKS
VALPARAISO     CLEAR     45  44  97 CALM      30.10S FOG
6HR MIN TEMP:  43; 6HR MAX TEMP:  59;


$$

LMZ046-743>745-170700-
SOUTHERN LAKE MICHIGAN

STATION/POSITION TIME  TEMP WIND        PRES
                       AIR  DIR/SP/G
                 (UTC) (F)  (DEG/KT/KT) (MB)
MICHIGAN CITY    0500   52  120/  7/  9   N/A

$$

INZ004-005-014>016-021>024-170700-
NORTH CENTRAL INDIANA

CITY           SKY/WX    TMP DP  RH WIND       PRES   REMARKS
GOSHEN         CLEAR     46  43  89 CALM      30.09F
6HR MIN TEMP:  45; 6HR MAX TEMP:  59;

PERU/GRISSOM   CLEAR     47  47 100 SE2       30.09F
6HR MIN TEMP:  47; 6HR MAX TEMP:  59;

SOUTH BEND     CLEAR     46  42  86 CALM      30.09F
6HR MIN TEMP:  46; 6HR MAX TEMP:  58;

WARSAW +       FOG       45  45 100 CALM      30.10S VSB 1/2

$$

INZ006>009-017-018-025>027-170700-
NORTHEAST INDIANA

CITY           SKY/WX    TMP DP  RH WIND       PRES   REMARKS
ANGOLA *+      CLEAR     45  45 100 CALM      30.09F
FORT WAYNE     CLEAR     46  44  93 CALM      30.10F
6HR MIN TEMP:  45; 6HR MAX TEMP:  58;


$$

INZ028-029-035-036-043>045-051>053-170700-
WEST CENTRAL INDIANA

CITY           SKY/WX    TMP DP  RH WIND       PRES   REMARKS
GREENCASTLE +  FOG       46  46 100 CALM      30.11S VSB 1
LAFAYETTE      FOG       45  45 100 MISG      30.09S VSB 1/2
6HR MIN TEMP:  45; 6HR MAX TEMP:  57;

TERRE HAUTE    CLEAR     45  44  97 CALM      30.10F
6HR MIN TEMP:  45; 6HR MAX TEMP:  59;


$$

INZ030>032-037>040-046>048-054>057-064-065-170700-
CENTRAL INDIANA

CITY           SKY/WX    TMP DP  RH WIND       PRES   REMARKS
FRANKFORT +    CLEAR    N/A N/A N/A CALM      30.11S
INDIANAPOLIS   CLEAR     50  48  93 CALM      30.10S
6HR MIN TEMP:  50; 6HR MAX TEMP:  58;

-EAGLE CREEK   CLEAR     50  47  89 CALM      30.10S FOG
6HR MIN TEMP:  50; 6HR MAX TEMP:  61;

KOKOMO *+      CLEAR     46  43  87 NE3       30.10S
MT COMFORT *+    N/A     45 N/A N/A CALM      30.11S VSB 1/2
SHELBYVILLE    FOG       47  44  90 CALM      30.10F VSB 1/2
6HR MIN TEMP:  47; 6HR MAX TEMP:  58;


$$

INZ033-034-041-042-049-050-058-059-170700-
EAST CENTRAL INDIANA

CITY           SKY/WX    TMP DP  RH WIND       PRES   REMARKS
MUNCIE         CLEAR     46  44  93 CALM      30.11S
6HR MIN TEMP:  45; 6HR MAX TEMP:  58;


$$

INZ060-061-067>069-081>083-085>088-170700-
SOUTHWEST INDIANA

CITY           SKY/WX    TMP DP  RH WIND       PRES   REMARKS
EVANSVILLE     CLEAR     50  48  93 CALM      30.11S
6HR MIN TEMP:  50; 6HR MAX TEMP:  60;


$$

INZ062-063-066-070>080-084-089>092-170700-
SOUTH CENTRAL AND SOUTHEAST INDIANA

CITY           SKY/WX    TMP DP  RH WIND       PRES   REMARKS
BLOOMINGTON    FOG       46  45  96 CALM      30.11S VSB 1
6HR MIN TEMP:  45; 6HR MAX TEMP:  57;


$$



USA.gov is the U.S. government's official web portal to all federal, state and local government web resources and services.